Regional Weather Roundup
Issued by NWS Pendleton, OR

Home | Current Version | Previous Version | Text Only | Print | Product List | Glossary On
Versions: 1 2 3 4 5 6 7 8 9 10 11 12 13 14 15 16 17 18 19 20 21 22 23 24 25 26 27 28 29 30 31 32 33 34 35 36 37 38 39 40 41 42 43 44 45 46 47 48 49 50
000
ASUS46 KPDT 190025
RWRPDT
PENDLETON REGIONAL WEATHER ROUNDUP
NATIONAL WEATHER SERVICE PENDLETON OREGON
500 PM PDT FRI APR 18 2014

NOTE: FAIR INDICATES FEW OR NO CLOUDS BELOW 12,000 FEET WITH NO
SIGNIFICANT WEATHER AND/OR OBSTRUCTIONS TO VISIBILITY.

# INDICATES UNOFFICIAL STATION AND DATA

WAZ520-190110-
EAST SLOPES OF WASHINGTON CASCADES

CITY            SKY/WX      TMP DP  RH  WIND    PRES   REMARKS
#BUMPING DAM    N/A         43  N/A N/A S5      N/A
#CLE ELUM HS    N/A         48  30  49  W7      29.97F
#CLE ELUM 2NW   N/A         47  30  51  W7      N/A
#CLE ELUM LAKE  N/A         46  33  60  W2      30.03F
#CLIFFDEL 2NW   N/A         50  28  42  N3      N/A
#GLENWOOD       N/A         57  35  43  W2      30.01
#MANASTASH CYN  N/A         49  25  39  CALM    29.95S
#NELSON         N/A         48  33  56  CALM    30.04F
#NELSON 3SW     N/A         45  33  63  NE1     30.24F
#NILE           N/A         52  30  43  W5      29.32
#PEOH POINT     N/A         41  29  62  W5      N/A
#RONALD 2NW     N/A         47  36  65  SW2     29.88F
#TEANAWAY 4NE   N/A         50  32  50  W3      N/A
#TROUT LAKE HS  N/A         55  34  45  NW5     N/A
#TROUT LAKE 1NE N/A         53  33  46  W6      30.03
$$

WAZ521-190110-
SIMCOE HIGHLANDS

CITY            SKY/WX      TMP DP  RH  WIND    PRES   REMARKS
#CENTERVILLE 4W N/A         57  36  45  NW7     29.75F
#CENTERVILLE 1SWN/A         54  35  48  NW7     29.99
#GOLDENDALE 1NE N/A         55  28  35  CALM    N/A
#GOLDENDALE 1S  N/A         56  38  51  W1      28.17F
#GOLDENDALE 5WNWN/A         56  35  45  SW1     30.00S
#GOODNOE HILLS  N/A         59  33  37  NW8     29.94S
$$

WAZ026-190110-
KITTITAS VALLEY

CITY            SKY/WX      TMP DP  RH  WIND    PRES   REMARKS
ELLENSBURG AP   CLOUDY      53  30  41  NW21G31 29.99
6HR MIN TEMP:   50; 6HR MAX TEMP:   56;

#ELLENSBURG 3NE N/A         49  31  50  N13     29.99  WCI 44
#ELLENSBURG     N/A         53  33  46  NW6     N/A
#ELLENSBURG 1E  N/A         51  28  41  CALM    N/A
#KITTITAS 4N    N/A         52  32  46  W15     30.14F
#THORP 6N       N/A         46  30  53  W15G28  30.04  WCI 40
$$

WAZ027-190110-
YAKIMA VALLEY

CITY            SKY/WX      TMP DP  RH  WIND    PRES   REMARKS
YAKIMA AIRPORT  MOCLDY      61  26  26  VRB7    29.99
6HR MIN TEMP:   56; 6HR MAX TEMP:   61;

#COWICHE 1N     N/A         54  32  43  W3      30.13F
#DONALD 2NE     N/A         67   8  10  E1      30.31S
#GRANDVIEW      N/A         59  24  26  CALM    30.01S
#MOXEE 2E       N/A         58  12  16  SW3     29.91S
#NACHES 2SW     N/A         55  32  41  SW2     30.00S
#OUTLOOK DOT    N/A         58  26  29  W12     N/A
#SELAH 8E       N/A         55  25  31  N9      N/A
#TOPPENISH      N/A         59  28  30  SW5     29.91F
#WAPATO 4NE     N/A         67   8  10  E1      30.31S
#W YAKIMA       N/A         57  27  31  W3      29.99F
#WHITE SWAN 5E  N/A         61  31  32  W5      30.00
#WILEY CITY 3W  N/A         58  22  25  W1      29.99F
$$

WAZ028-190110-
LOWER COLUMBIA BASIN...WASHINGTON

CITY            SKY/WX      TMP DP  RH  WIND    PRES   REMARKS
PASCO           PTCLDY      64  25  23  W16     30.00
6HR MIN TEMP:   56; 6HR MAX TEMP:   66;

PROSSER AWOS    N/A         61  28  28  SW7     30.03
#BASIN CITY 5SW N/A         62  31  31  W10     29.98S
#BENTON CITY    N/A         60  29  31  W8      29.90F
#CONNELL 5N     N/A         60  26  27  W6      29.98F
#CONNELL 5NW    N/A         60  30  32  W9      29.95
#ELTOPIA        N/A         66  30  26  W7      29.95S
#KENNEWICK 3S   N/A         61  33  35  S3      30.00F
#PASCO-BROADMOORN/A         66  19  16  SW7     29.88F
#PATERSON       N/A         59  37  44  SW14    30.00
#PROSSER        N/A         59  24  26  W7      30.01
#SAGEMOOR 2W    N/A         61  32  33  W7      29.84
#TOUCHET 2S     N/A         59  35  40  W7      29.99
#WEST PASCO     N/A         65  31  28  SW5     29.98F
$$

WAZ029-190110-
FOOTHILLS OF THE BLUES...WASHINGTON

CITY            SKY/WX      TMP DP  RH  WIND    PRES   REMARKS
WALLA WALLA AP  MOCLDY      59  28  30  SW9     30.02
6HR MIN TEMP:   50; 6HR MAX TEMP:   60;

#COLLEGE PLACE  N/A         65  24  21  SW6     30.03S
#LOWDEN 2SE     N/A         61  29  30  W9      29.98
#PLEASANT VIEW 1N/A         54  30  40  S10     30.06
#PRESCOTT       N/A         58  32  37  CALM    30.00F
#SUDBURY        N/A         61  N/A N/A SW13    N/A
#WHITMAN COLLEGEN/A         58  26  29  S12     30.07
#WAITSBURG 8N   N/A         54  20  26  S8      29.88S
#WALLA WALLA 5E N/A         57  31  37  S14     N/A
$$

WAZ030-190110-
BLUE MOUNTAINS...WASHINGTON

CITY            SKY/WX      TMP DP  RH  WIND    PRES   REMARKS
$$

ORZ009-041-WAZ024-190110-
COLUMBIA RIVER GORGE

CITY            SKY/WX      TMP DP  RH  WIND    PRES   REMARKS
HOOD RIVER AP   PTCLDY      59  36  42  NW7     30.02
THE DALLES AP   PTCLDY      63  34  34  N12     30.00
6HR MIN TEMP:   54; 6HR MAX TEMP:   63;

#ARLINGTON AIRPON/A         59  34  39  W12     25.19
#ARLINGTON HS   N/A         62  31  31  NE14    29.92F
#CELILO DOT     N/A         65  30  27  N3      N/A
#MARYHILL 2W    N/A         60  29  31  W3      N/A
#MOSIER 1S      N/A         60  28  29  W6      30.06S
#MURDOCK        N/A         62  39  43  NW5     30.01F
#RUFUS DOT      N/A         63  31  30  NW6     N/A

$$

ORZ510-190110-
NORTH CENTRAL OREGON

CITY            SKY/WX      TMP DP  RH  WIND    PRES   REMARKS
#COW CYN RST AREN/A         55  17  22  SE1     N/A
#GRASS VALLEY   N/A         54  33  45  NW2     N/A
#GRASS VALLEY 1SN/A         55  37  51  N1      30.03F
#KENT DOT       N/A         56  18  22  NE1     N/A
#MAUPIN SCHOOL  N/A         62  27  26  NE1     30.01F
#SHANIKO 5WSW   N/A         53  11  18  W3      N/A
#TYGH VALLEY 2NEN/A         61  33  35  NE7     29.98
#WAPANITIA AIRPON/A         59  28  30  E6      30.00F
#WASCO DOT      N/A         59  30  33  NW2     N/A
$$

ORZ511-190110-
CENTRAL OREGON

CITY            SKY/WX      TMP DP  RH  WIND    PRES   REMARKS
BEND AIRPORT    PTCLDY      57  12  16  N5      29.96F
MADRAS AIRPORT  SUNNY       57  19  22  E6      30.00
#BEND 6E        N/A         57  14  18  CALM    29.92F
#BEND 1SW       N/A         57  -9   6  N1      N/A
#BEND-AWBREY    N/A         61  23  23  S2      29.99S
#BEND-KIM LN    N/A         58  18  21  NE2     29.94S
#CROOKED RVR RANN/A         58  21  24  E6      29.97F
#CULVER         N/A         58  18  21  W2      29.94F
#LAKE BILLY CHINN/A         59   0   9  NE8     30.03S
#POWELL BUTTE   N/A         58  26  29  N2      29.62F
#PRINEVILLE AIR N/A         56  23  28  NW1     29.95F
#PRINEVILLE 3N  N/A         58  24  27  CALM    29.93F
#WARM SPRINGS   N/A         64  28  25  CALM    29.96


ORZ509-190110-
EAST SLOPES OF OREGON CASCADES

CITY            SKY/WX      TMP DP  RH  WIND    PRES   REMARKS
#BLUE BOX PASS  N/A         51   0  12  CALM    N/A
#CAMP SHERMAN   N/A         60  24  25  N1      29.96F
#LA PINE DOT    N/A         61   2   9  W5      N/A
#LA PINE 4NW    N/A         59  20  22  W1      29.99F
#LAVA BUTTE DOT N/A         54  17  23  CALM    N/A
#SISTERS AIRPOR N/A         60  30  32  VRB7    29.97F
#SISTERS ODOT   N/A         59  N/A N/A CALM    N/A
#SISTERS 3N     N/A         60  23  24  N3      30.01S
#SUNRIVER       N/A         58  20  23  N2      29.86S
#SUNRIVER AP    N/A         57  20  23  NE3     29.93F
#WANOGA BUTTE D N/A         48   7  18  SW2     N/A

$$

ORZ044-190110-
LOWER COLUMBIA BASIN...OREGON

CITY            SKY/WX      TMP DP  RH  WIND    PRES   REMARKS
HERMISTON       PTCLDY      61  29  30  SW10    30.01
6HR MIN TEMP:   54; 6HR MAX TEMP:   63;

#BOARDMAN SCHOOLN/A         62  32  32  W1      29.99F
#BOARDMAN 3W    N/A         66  38  36  S3      29.74S
#BOARDMAN 8SW   N/A         60  34  37  SW9     30.00F
#IONE SCHOOL    N/A         58  31  36  W6      30.00F
#IRRIGON 4NW    N/A         62  35  36  SW14    N/A
#UMATILLA SCHOOLN/A         63  39  41  NE1     30.05S
#UMATILLA       N/A         63  29  28  SW7     29.98F
$$

ORZ507-190110-
NORTHERN FOOTHILLS OF THE BLUES

CITY            SKY/WX      TMP DP  RH  WIND    PRES   REMARKS
PENDLETON AIRPT PTCLDY      58  29  33  W14     30.01
6HR MIN TEMP:   51; 6HR MAX TEMP:   60;

#ATHENA         N/A         55  31  40  W8      30.06
#HELIX 3N       N/A         54  31  41  W12     29.98S
#M-F FERNDALE   N/A         62  29  28  CALM    30.01S
#M-F GROVE ELEM N/A         58  23  26  W7      30.01
#M-FREEWATER 5SEN/A         57  35  43  W5      30.02
#PDT AQUATIC CTRN/A         61  32  33  W7      30.01
#PDT SUNRIDGE   N/A         59  35  40  W5      30.02S
#PILOT ROCK     N/A         59  29  32  W1      30.03
#TUTUILLA       N/A         56  33  42  W7      29.95S
#UMAPINE 2E     N/A         61  23  23  W2      29.94F
#WESTON SCHOOL  N/A         54  23  30  W6      30.06

$$

ORZ508-190110-
SOUTHERN FOOTHILLS OF THE BLUES

CITY            SKY/WX      TMP DP  RH  WIND    PRES   REMARKS
LEXINGTON       SUNNY       59  32  36  W6      30.02F
#AJAX           N/A         54  31  41  N5      30.03
#CONDON SCHOOL  N/A         55  29  37  CALM    29.97S
#FOSSIL SCHOOL  N/A         55  26  32  N2      29.97
#HEPPNER 4NE    N/A         51  30  44  W6      30.03F
#LEXINGTON 2SE  N/A         59  32  36  CALM    29.98S
#MIKKALO        N/A         56  29  35  NW3     30.01
#OLEX 4N        N/A         58  31  36  W7      30.01S
#RUGGS 5NE      N/A         55  29  37  W6      30.27S
#RUGGS 2SW      N/A         54  25  32  NW2     30.08F

$$

ORZ502-503-190110-
BLUE MOUNTAINS

CITY            SKY/WX      TMP DP  RH  WIND    PRES   REMARKS
MEACHAM         PTCLDY      48  25  40  VRB5    30.01
#BATTLE MTN DOT N/A         46  19  34  N5      N/A
#HARDMAN 10S    N/A         52  24  33  N3      30.05
#HEPPNER 15SE   N/A         47  26  44  W6      29.91F
#LADD CYN SMT   N/A         52  16  24  N10     N/A
#LADD CREEK ODOTN/A         54  22  28  NE8     N/A
#LONG CREEK HS  N/A         52  23  32  CALM    29.94F
#N POWDER DOT   N/A         54  27  35  NE14    N/A
#TOLLGATE       N/A         40  26  57  SW5     29.96F
#TROY SCHOOL    N/A         59  27  29  N2      29.85S
$$

ORZ505-190110-
JOHN DAY BASIN

CITY            SKY/WX      TMP DP  RH  WIND    PRES   REMARKS
JOHN DAY        MOCLDY      55  21  26  NW6     30.00
#JOHN DAY KJDY  N/A         60  20  21  W1      29.92S
#MONUMENT HS    N/A         62  17  17  W3      29.93
#MT. VERNON 5SE N/A         51  26  37  CALM    29.95S
$$

ORZ506-190110-
OCHOCO AND JOHN DAY HIGHLANDS

CITY            SKY/WX      TMP DP  RH  WIND    PRES   REMARKS
#ANTONE         N/A         32  N/A N/A CALM    N/A
#HORSE RIDGE DO N/A         55  14  19  N7      N/A
#KEYES SMT DOT  N/A         50  24  36  W5      N/A
#PAULINA SCHOOL N/A         62  14  15  S1      29.96S
#PRAIRIE CITY   N/A         56  22  26  W1      29.96S
#SENECA 9NW     N/A         51  23  33  CALM    29.99R
$$

ORZ049-190110-
GRANDE RONDE VALLEY

CITY            SKY/WX      TMP DP  RH  WIND    PRES   REMARKS
LA GRANDE       PTCLDY      55  23  29  N8      29.99S
#COVE           N/A         55  25  31  N3      29.93S
#ELGIN 3N       N/A         54  20  26  W5      29.74S
#ELGIN 1E       N/A         55  25  31  W5      N/A
#IMBLER SCHOOL  N/A         54  24  31  CALM    29.96F
#ISLAND CITY 4N N/A         56  27  33  SW2     29.96
#LADD CYN DOT   N/A         55  20  25  NW8     N/A
#LA GRANDE ELEM N/A         55  24  30  N6      29.98S
#UNION 1S       N/A         56  27  33  NE7     29.92F
$$

ORZ050-190110-
WALLOWA COUNTY

CITY            SKY/WX      TMP DP  RH  WIND    PRES   REMARKS
#ENTERPRISE HS  N/A         52  22  31  N6      30.00S
#IMNAHA SCHOOL  N/A         58  12  16  CALM    29.89F
#JOSEPH 3N      N/A         51  24  34  N5      30.02F
#LOSTINE        N/A         51  21  30  N3      29.81S
#MT HOWARD 8000 N/A         31  10  41  W6      29.98S
#SHEEP RDG 7000 N/A         33  16  49  CALM    30.14
#WALLOWA SCHOOL N/A         53  20  27  NW2     30.94F



$$



USA.gov is the U.S. government's official web portal to all federal, state and local government web resources and services.